Location: ????????
(55.3939°N, 37.4780°E)
Time: 20:59:46
(UTC+00:00)

USA 234 - Pass Details

Date: 14 April 2026
Orbit: 1102 x 1106 km, 123.0° (Epoch: 4 January)

Event Time Altitude Azimuth Distance (km) Brightness Sun altitude
Rises 17:11:25 0° 63° (ENE) 3,929 5.8 -5.8°
Reaches altitude 10° 17:14:02 10° 69° (ENE) 2,969 5.1 -6.2°
Maximum altitude 17:20:19 47° 142° (SE) 1,431 3.5 -7.0°
Drops below altitude 10° 17:26:35 10° 215° (SW) 2,960 5.6 -7.7°
Sets 17:29:11 0° 221° (SW) 3,916 6.3 -8.1°
